Home   Weather   Fort Wayne   Past weeks
Flag for USA

Past Weather in Fort Wayne, Indiana, USA — Yesterday and Last 2 Weeks

Now
39 °F

Passing clouds.


Feels Like: 35 °F
Forecast: 44 / 33 °F
Wind: 6 mph from Northwest

Location: Fort Wayne International Airport

Current Time: Mar 30, 2020 at 11:18:13 pm

Latest Report: Mar 30, 2020 at 9:54 pm


Visibility: 10 mi

Pressure: 30.14 "Hg

Humidity: 73%

Dew Point: 31 °F

Location of Fort WayneLocation

Past Weather in Fort Wayne — Graph

°F

Fort Wayne Temperature Yesterday

Maximum temperature yesterday: 63 °F (at 3:34 am)
Minimum temperature yesterday: 49 °F (at 1:54 pm)
Average temperature yesterday: 55 °F

High & Low Weather Summary for the Past Weeks

 TemperatureHumidityPressure
High65 °F (Mar 20, 5:06 am)100% (Mar 19, 4:54 am)30.58 "Hg (Mar 19, 4:54 am)
Low23 °F (Mar 22, 6:54 am)52% (Mar 17, 5:54 pm)29.52 "Hg (Mar 29, 4:54 am)
Average43 °F83%30.07 "Hg
* Reported Mar 15 9:54 pm — Mar 30 9:54 pm, Fort Wayne. Weather by CustomWeather, © 2020

Note: Actual official high and low records may vary slightly from our data, if they occured in-between our weather recording intervals... More about our weather records

Fort Wayne Weather History for the Previous 24 Hours

Scroll right to see more
 ConditionsComfort  
Time TempWeatherWind HumidityBarometerVisibility
9:54 pm
Mon, Mar 30
39 °FPassing clouds.6 mph73%30.14 "Hg10 mi
8:54 pm41 °FPassing clouds.7 mph76%30.14 "Hg10 mi
7:54 pm42 °FPartly sunny.10 mph73%30.13 "Hg10 mi
6:54 pm43 °FOvercast.14 mph68%30.11 "Hg10 mi
5:54 pm44 °FPartly sunny.14 mph65%30.11 "Hg10 mi
4:54 pm45 °FMostly cloudy.15 mph63%30.12 "Hg10 mi
3:54 pm45 °FMostly cloudy.14 mph65%30.11 "Hg10 mi
3:07 pm46 °FCloudy.17 mph66%30.10 "Hg10 mi
2:54 pm45 °FMostly cloudy.10 mph68%30.11 "Hg10 mi
1:54 pm44 °FMostly cloudy.20 mph68%30.11 "Hg10 mi
1:33 pm44 °FMostly cloudy.14 mph73%30.10 "Hg10 mi
12:54 pm46 °FMore clouds than sun.17 mph68%30.09 "Hg10 mi
11:54 am43 °FOvercast.14 mph71%30.10 "Hg10 mi
10:54 am43 °FOvercast.16 mph71%30.08 "Hg10 mi
9:54 am43 °FMostly cloudy.21 mph71%30.05 "Hg10 mi
8:54 am42 °FOvercast.14 mph76%30.03 "Hg10 mi
8:13 am42 °FMostly cloudy.16 mph76%30.01 "Hg10 mi
7:54 am42 °FBroken clouds.14 mph76%30.01 "Hg10 mi
7:37 am41 °FBroken clouds.13 mph80%29.99 "Hg10 mi
6:54 am42 °FLight rain. Passing clouds.17 mph76%29.98 "Hg10 mi
6:43 am43 °FLight rain. Mostly cloudy.15 mph74%29.97 "Hg10 mi
5:54 am43 °FLight rain. Overcast.20 mph71%29.96 "Hg10 mi
4:54 am44 °FOvercast.18 mph71%29.93 "Hg10 mi
3:54 am43 °FPassing clouds.21 mph71%29.92 "Hg10 mi
3:13 am45 °FPassing clouds.20 mph71%29.90 "Hg10 mi
2:54 am46 °FPassing clouds.21 mph73%29.90 "Hg10 mi
1:54 am47 °FPassing clouds.18 mph71%29.90 "Hg10 mi
12:54 am47 °FMostly cloudy.20 mph74%29.90 "Hg10 mi
11:54 pm
Sun, Mar 29
49 °FOvercast.15 mph69%29.91 "Hg10 mi
Weather by CustomWeather, © 2020

See weather overview

Advertising